Time,TemperatureF,DewpointF,PressureIn,WindDirection,WindDirectionDegrees,WindSpeedMPH,WindSpeedGustMPH,Humidity,HourlyPrecipIn,Conditions,Clouds,dailyrainin,SoftwareType,DateUTC
2013-03-09 00:00:00,39.4,18.8,30.39,ESE,112,0.0,2.9,43,0.00,,CLR,0.00,VWS V14.01,2013-03-09 05:00:00,
2013-03-09 00:05:00,39.0,19.0,30.39,ESE,112,0.0,2.9,44,0.00,,CLR,0.00,VWS V14.01,2013-03-09 05:05:00,
2013-03-09 00:10:00,38.8,18.8,30.39,East,90,0.0,2.9,44,0.00,,CLR,0.00,VWS V14.01,2013-03-09 05:10:00,
2013-03-09 00:15:00,38.8,18.8,30.39,ESE,112,0.0,2.9,44,0.00,,CLR,0.00,VWS V14.01,2013-03-09 05:15:00,
2013-03-09 00:20:00,38.7,18.6,30.39,SE,135,0.0,2.9,44,0.00,,CLR,0.00,VWS V14.01,2013-03-09 05:20:00,
2013-03-09 00:25:00,38.5,18.5,30.39,SE,135,0.0,2.9,44,0.00,,CLR,0.00,VWS V14.01,2013-03-09 05:25:00,
2013-03-09 00:30:00,38.5,18.5,30.39,East,90,0.0,3.1,44,0.00,,CLR,0.00,VWS V14.01,2013-03-09 05:30:00,
2013-03-09 00:35:00,38.5,19.0,30.39,East,90,0.0,3.1,45,0.00,,CLR,0.00,VWS V14.01,2013-03-09 05:35:00,
2013-03-09 00:40:00,38.5,19.0,30.39,ENE,68,0.0,3.1,45,0.00,,CLR,0.00,VWS V14.01,2013-03-09 05:40:00,
2013-03-09 00:45:00,38.5,19.0,30.39,ENE,68,0.0,3.1,45,0.00,,CLR,0.00,VWS V14.01,2013-03-09 05:45:00,
2013-03-09 00:50:00,38.7,19.2,30.39,ENE,68,0.0,3.1,45,0.00,,CLR,0.00,VWS V14.01,2013-03-09 05:50:00,
2013-03-09 00:55:00,38.5,19.0,30.39,ENE,68,0.0,1.3,45,0.00,,CLR,0.00,VWS V14.01,2013-03-09 05:55:00,
2013-03-09 01:00:00,38.5,19.5,30.39,ENE,68,0.0,2.0,46,0.00,,CLR,0.00,VWS V14.01,2013-03-09 06:00:00,
2013-03-09 01:05:00,38.5,19.5,30.39,East,90,0.0,3.8,46,0.00,,CLR,0.00,VWS V14.01,2013-03-09 06:05:00,
2013-03-09 01:10:00,38.5,19.5,30.39,East,90,0.0,3.8,46,0.00,,CLR,0.00,VWS V14.01,2013-03-09 06:10:00,
2013-03-09 01:15:00,38.5,19.5,30.39,East,90,0.0,3.8,46,0.00,,CLR,0.00,VWS V14.01,2013-03-09 06:15:00,
2013-03-09 01:20:00,38.3,19.4,30.39,East,90,0.0,3.8,46,0.00,,CLR,0.00,VWS V14.01,2013-03-09 06:20:00,
2013-03-09 01:25:00,38.1,19.2,30.39,ENE,68,0.0,3.8,46,0.00,,CLR,0.00,VWS V14.01,2013-03-09 06:25:00,
2013-03-09 01:30:00,38.1,19.2,30.39,ENE,68,0.0,3.8,46,0.00,,CLR,0.00,VWS V14.01,2013-03-09 06:30:00,
2013-03-09 01:35:00,37.9,19.0,30.39,ENE,68,0.0,3.8,46,0.00,,CLR,0.00,VWS V14.01,2013-03-09 06:35:00,
2013-03-09 01:40:00,37.9,19.0,30.39,ENE,68,1.1,3.8,46,0.00,,CLR,0.00,VWS V14.01,2013-03-09 06:40:00,
2013-03-09 01:45:00,37.8,18.9,30.39,ENE,68,0.0,3.8,46,0.00,,CLR,0.00,VWS V14.01,2013-03-09 06:45:00,
2013-03-09 01:50:00,37.6,19.2,30.36,ENE,68,0.0,3.8,47,0.00,,CLR,0.00,VWS V14.01,2013-03-09 06:50:00,
2013-03-09 01:55:00,37.6,19.2,30.36,East,90,2.0,2.0,47,0.00,,CLR,0.00,VWS V14.01,2013-03-09 06:55:00,
2013-03-09 02:00:00,37.4,19.0,30.36,East,90,0.9,2.2,47,0.00,,CLR,0.00,VWS V14.01,2013-03-09 07:00:00,
2013-03-09 02:05:00,37.2,19.4,30.39,East,90,0.0,2.2,48,0.00,,CLR,0.00,VWS V14.01,2013-03-09 07:05:00,
2013-03-09 02:10:00,37.0,19.2,30.39,East,90,0.0,2.2,48,0.00,,CLR,0.00,VWS V14.01,2013-03-09 07:10:00,
2013-03-09 02:15:00,36.9,19.5,30.39,East,90,0.0,2.2,49,0.00,,CLR,0.00,VWS V14.01,2013-03-09 07:15:00,
2013-03-09 02:20:00,36.5,19.2,30.39,East,90,0.0,2.2,49,0.00,,CLR,0.00,VWS V14.01,2013-03-09 07:20:00,
2013-03-09 02:25:00,36.3,19.0,30.39,ENE,68,0.0,2.2,49,0.00,,CLR,0.00,VWS V14.01,2013-03-09 07:25:00,
2013-03-09 02:30:00,36.3,19.5,30.39,ENE,68,0.0,2.2,50,0.00,,CLR,0.00,VWS V14.01,2013-03-09 07:30:00,
2013-03-09 02:35:00,36.0,19.1,30.39,ENE,68,0.0,2.2,50,0.00,,CLR,0.00,VWS V14.01,2013-03-09 07:35:00,
2013-03-09 02:40:00,36.0,19.1,30.39,ENE,68,0.0,2.2,50,0.00,,CLR,0.00,VWS V14.01,2013-03-09 07:40:00,
2013-03-09 02:45:00,35.8,19.0,30.39,ENE,68,0.0,2.2,50,0.00,,CLR,0.00,VWS V14.01,2013-03-09 07:45:00,
2013-03-09 02:50:00,35.6,18.8,30.39,ENE,68,0.0,2.2,50,0.00,,CLR,0.00,VWS V14.01,2013-03-09 07:50:00,
2013-03-09 02:55:00,35.4,19.1,30.39,ENE,68,0.0,0.0,51,0.00,,CLR,0.00,VWS V14.01,2013-03-09 07:55:00,
2013-03-09 03:00:00,35.2,18.9,30.39,ENE,68,0.0,0.0,51,0.00,,CLR,0.00,VWS V14.01,2013-03-09 08:00:00,
2013-03-09 03:05:00,35.2,18.9,30.36,ENE,68,0.0,0.0,51,0.00,,CLR,0.00,VWS V14.01,2013-03-09 08:05:00,
2013-03-09 03:10:00,35.1,18.8,30.36,ENE,68,0.0,0.0,51,0.00,,CLR,0.00,VWS V14.01,2013-03-09 08:10:00,
2013-03-09 03:15:00,34.9,19.1,30.36,ENE,68,0.0,0.0,52,0.00,,CLR,0.00,VWS V14.01,2013-03-09 08:15:00,
2013-03-09 03:20:00,34.9,19.1,30.33,ENE,68,0.0,0.0,52,0.00,,CLR,0.00,VWS V14.01,2013-03-09 08:20:00,
2013-03-09 03:25:00,34.9,19.5,30.33,ENE,68,0.0,0.0,53,0.00,,CLR,0.00,VWS V14.01,2013-03-09 08:25:00,
2013-03-09 03:30:00,34.7,19.3,30.33,ENE,68,0.0,0.0,53,0.00,,CLR,0.00,VWS V14.01,2013-03-09 08:30:00,
2013-03-09 03:35:00,34.7,18.9,30.33,ENE,68,1.3,2.0,52,0.00,,CLR,0.00,VWS V14.01,2013-03-09 08:35:00,
2013-03-09 03:40:00,34.7,19.3,30.33,ENE,68,0.0,2.2,53,0.00,,CLR,0.00,VWS V14.01,2013-03-09 08:40:00,
2013-03-09 03:45:00,34.9,19.5,30.33,ENE,68,0.0,2.2,53,0.00,,CLR,0.00,VWS V14.01,2013-03-09 08:45:00,
2013-03-09 03:50:00,35.1,20.1,30.33,ESE,112,0.0,2.5,54,0.00,,CLR,0.00,VWS V14.01,2013-03-09 08:50:00,
2013-03-09 03:55:00,35.4,20.4,30.33,East,90,2.5,2.5,54,0.00,,CLR,0.00,VWS V14.01,2013-03-09 08:55:00,
2013-03-09 04:00:00,35.6,20.6,30.33,ENE,68,1.6,3.4,54,0.00,,CLR,0.00,VWS V14.01,2013-03-09 09:00:00,
2013-03-09 04:05:00,35.6,20.6,30.33,NE,45,0.0,3.4,54,0.00,,CLR,0.00,VWS V14.01,2013-03-09 09:05:00,
2013-03-09 04:10:00,35.8,20.8,30.33,SSE,158,0.0,3.4,54,0.00,,CLR,0.00,VWS V14.01,2013-03-09 09:10:00,
2013-03-09 04:15:00,36.0,21.0,30.33,ENE,68,1.1,3.4,54,0.00,,CLR,0.00,VWS V14.01,2013-03-09 09:15:00,
2013-03-09 04:20:00,36.0,21.0,30.30,ENE,68,0.9,3.4,54,0.00,,FEW130,0.00,VWS V14.01,2013-03-09 09:20:00,
2013-03-09 04:25:00,36.1,20.7,30.30,ENE,68,0.0,3.4,53,0.00,,FEW130,0.00,VWS V14.01,2013-03-09 09:25:00,
2013-03-09 04:30:00,36.1,20.7,30.30,ENE,68,0.0,3.4,53,0.00,,FEW130,0.00,VWS V14.01,2013-03-09 09:30:00,
2013-03-09 04:35:00,36.3,20.8,30.33,ESE,112,0.0,3.4,53,0.00,,FEW130,0.00,VWS V14.01,2013-03-09 09:35:00,
2013-03-09 04:40:00,36.3,20.8,30.33,ENE,68,0.9,3.4,53,0.00,,FEW130,0.00,VWS V14.01,2013-03-09 09:40:00,
2013-03-09 04:45:00,36.5,21.5,30.33,ENE,68,2.0,3.4,54,0.00,,FEW130,0.00,VWS V14.01,2013-03-09 09:45:00,
2013-03-09 04:50:00,36.7,21.2,30.33,ENE,68,2.5,3.4,53,0.00,,FEW130,0.00,VWS V14.01,2013-03-09 09:50:00,
2013-03-09 04:55:00,36.7,21.2,30.33,ENE,68,1.1,1.3,53,0.00,,FEW130,0.00,VWS V14.01,2013-03-09 09:55:00,
2013-03-09 05:00:00,36.9,21.3,30.33,ENE,68,2.0,2.0,53,0.00,,FEW130,0.00,VWS V14.01,2013-03-09 10:00:00,
2013-03-09 05:05:00,36.9,21.3,30.33,ESE,112,0.0,2.0,53,0.00,,FEW130,0.00,VWS V14.01,2013-03-09 10:05:00,
2013-03-09 05:10:00,36.9,21.3,30.33,ENE,68,2.2,3.1,53,0.00,,FEW130,0.00,VWS V14.01,2013-03-09 10:10:00,
2013-03-09 05:15:00,37.0,21.5,30.33,ENE,68,0.0,3.1,53,0.00,,FEW130,0.00,VWS V14.01,2013-03-09 10:15:00,
2013-03-09 05:20:00,37.0,21.5,30.33,ENE,68,2.5,3.1,53,0.00,,OVC150,0.00,VWS V14.01,2013-03-09 10:20:00,
2013-03-09 05:25:00,37.0,21.5,30.33,ENE,68,2.7,3.6,53,0.00,,OVC150,0.00,VWS V14.01,2013-03-09 10:25:00,
2013-03-09 05:30:00,37.0,21.5,30.33,ENE,68,0.9,3.6,53,0.00,,OVC150,0.00,VWS V14.01,2013-03-09 10:30:00,
2013-03-09 05:35:00,37.2,21.2,30.33,ENE,68,1.6,3.6,52,0.00,,OVC150,0.00,VWS V14.01,2013-03-09 10:35:00,
2013-03-09 05:40:00,37.2,21.2,30.33,ENE,68,0.0,3.6,52,0.00,,OVC150,0.00,VWS V14.01,2013-03-09 10:40:00,
2013-03-09 05:45:00,37.2,21.2,30.33,East,90,2.5,3.6,52,0.00,,OVC150,0.00,VWS V14.01,2013-03-09 10:45:00,
2013-03-09 05:50:00,37.4,21.4,30.33,ENE,68,0.0,3.6,52,0.00,,OVC150,0.00,VWS V14.01,2013-03-09 10:50:00,
2013-03-09 05:55:00,37.4,21.4,30.33,ENE,68,1.1,3.8,52,0.00,,OVC150,0.00,VWS V14.01,2013-03-09 10:55:00,
2013-03-09 06:00:00,37.4,21.4,30.33,North,0,0.0,3.8,52,0.00,,OVC150,0.00,VWS V14.01,2013-03-09 11:00:00,
2013-03-09 06:05:00,37.4,21.4,30.33,ENE,68,0.0,3.8,52,0.00,,OVC150,0.00,VWS V14.01,2013-03-09 11:05:00,
2013-03-09 06:10:00,37.4,21.4,30.33,NE,45,0.0,3.8,52,0.00,,OVC150,0.00,VWS V14.01,2013-03-09 11:10:00,
2013-03-09 06:15:00,37.4,21.4,30.33,NE,45,0.0,3.8,52,0.00,,OVC150,0.00,VWS V14.01,2013-03-09 11:15:00,
2013-03-09 06:20:00,37.6,21.1,30.33,ENE,68,0.0,3.8,51,0.00,,OVC120,0.00,VWS V14.01,2013-03-09 11:20:00,
2013-03-09 06:24:00,37.6,21.1,30.33,ENE,68,0.0,3.8,51,0.00,,OVC120,0.00,VWS V14.01,2013-03-09 11:24:00,
2013-03-09 06:29:00,37.6,21.1,30.33,ENE,68,0.0,3.8,51,0.00,,OVC120,0.00,VWS V14.01,2013-03-09 11:29:00,
2013-03-09 06:34:00,37.6,21.1,30.33,ENE,68,0.0,3.8,51,0.00,,OVC120,0.00,VWS V14.01,2013-03-09 11:34:00,
2013-03-09 06:39:00,37.6,21.6,30.33,SSW,202,1.3,3.8,52,0.00,,OVC120,0.00,VWS V14.01,2013-03-09 11:39:00,
2013-03-09 06:44:00,37.6,21.6,30.33,SSW,202,0.0,3.8,52,0.00,,OVC120,0.00,VWS V14.01,2013-03-09 11:44:00,
2013-03-09 06:49:00,37.6,21.6,30.33,SSW,202,0.0,3.8,52,0.00,,OVC120,0.00,VWS V14.01,2013-03-09 11:49:00,
2013-03-09 06:54:00,37.4,21.4,30.33,SSW,202,0.0,0.0,52,0.00,,OVC120,0.00,VWS V14.01,2013-03-09 11:54:00,
2013-03-09 06:59:00,37.4,21.4,30.33,ENE,68,0.0,2.0,52,0.00,,OVC120,0.00,VWS V14.01,2013-03-09 11:59:00,
2013-03-09 07:04:00,37.4,21.4,30.33,ENE,68,0.0,2.0,52,0.00,,OVC120,0.00,VWS V14.01,2013-03-09 12:04:00,
2013-03-09 07:09:00,37.4,21.9,30.33,ENE,68,0.0,2.0,53,0.00,,OVC120,0.00,VWS V14.01,2013-03-09 12:09:00,
2013-03-09 07:14:00,37.2,22.1,30.33,ENE,68,0.0,2.0,54,0.00,,OVC120,0.00,VWS V14.01,2013-03-09 12:14:00,
2013-03-09 07:19:00,37.0,21.5,30.33,ENE,68,0.0,2.0,53,0.00,,OVC130,0.00,VWS V14.01,2013-03-09 12:19:00,
2013-03-09 07:24:00,37.0,21.5,30.33,NE,45,0.0,2.0,53,0.00,,OVC130,0.00,VWS V14.01,2013-03-09 12:24:00,
2013-03-09 07:29:00,37.0,22.0,30.33,ENE,68,0.0,2.0,54,0.00,,OVC130,0.00,VWS V14.01,2013-03-09 12:29:00,
2013-03-09 07:34:00,37.0,22.0,30.33,ENE,68,0.0,2.0,54,0.00,,OVC130,0.00,VWS V14.01,2013-03-09 12:34:00,
2013-03-09 07:39:00,37.0,22.0,30.33,NNE,22,0.0,2.0,54,0.00,,OVC130,0.00,VWS V14.01,2013-03-09 12:39:00,
2013-03-09 07:44:00,37.4,21.9,30.33,NNE,22,0.0,2.0,53,0.00,,OVC130,0.00,VWS V14.01,2013-03-09 12:44:00,
2013-03-09 07:49:00,37.6,22.5,30.33,NE,45,0.0,2.0,54,0.00,,OVC130,0.00,VWS V14.01,2013-03-09 12:49:00,
2013-03-09 07:54:00,37.9,22.8,30.30,ESE,112,0.0,0.0,54,0.00,,OVC130,0.00,VWS V14.01,2013-03-09 12:54:00,
2013-03-09 07:59:00,38.3,23.1,30.30,ESE,112,0.0,2.5,54,0.00,,OVC130,0.00,VWS V14.01,2013-03-09 12:59:00,
2013-03-09 08:04:00,38.7,23.0,30.30,SE,135,1.1,2.9,53,0.00,,OVC130,0.00,VWS V14.01,2013-03-09 13:04:00,
2013-03-09 08:09:00,39.2,23.1,30.30,ESE,112,0.9,2.9,52,0.00,,OVC130,0.00,VWS V14.01,2013-03-09 13:09:00,
2013-03-09 08:14:00,39.4,22.8,30.30,SE,135,2.5,3.4,51,0.00,,OVC130,0.00,VWS V14.01,2013-03-09 13:14:00,
2013-03-09 08:19:00,39.7,23.1,30.33,ENE,68,1.6,3.4,51,0.00,,OVC130,0.00,VWS V14.01,2013-03-09 13:19:00,
2013-03-09 08:24:00,39.9,22.8,30.33,SSE,158,1.3,6.0,50,0.00,,OVC130,0.00,VWS V14.01,2013-03-09 13:24:00,
2013-03-09 08:29:00,40.3,23.1,30.33,ESE,112,1.6,6.0,50,0.00,,OVC130,0.00,VWS V14.01,2013-03-09 13:29:00,
2013-03-09 08:34:00,40.5,22.8,30.33,SE,135,1.3,6.0,49,0.00,,OVC130,0.00,VWS V14.01,2013-03-09 13:34:00,
2013-03-09 08:39:00,40.8,21.7,30.30,SE,135,1.1,6.0,46,0.00,,OVC130,0.00,VWS V14.01,2013-03-09 13:39:00,
2013-03-09 08:44:00,41.0,21.8,30.30,SE,135,1.3,6.0,46,0.00,,OVC130,0.00,VWS V14.01,2013-03-09 13:44:00,
2013-03-09 08:49:00,41.4,21.1,30.30,ESE,112,2.9,6.0,44,0.00,,OVC130,0.00,VWS V14.01,2013-03-09 13:49:00,
2013-03-09 08:54:00,41.7,21.4,30.30,NNE,22,5.8,5.8,44,0.00,,OVC130,0.00,VWS V14.01,2013-03-09 13:54:00,
2013-03-09 08:59:00,42.4,22.1,30.30,SE,135,6.3,6.3,44,0.00,,OVC130,0.00,VWS V14.01,2013-03-09 13:59:00,
2013-03-09 09:04:00,43.3,22.4,30.33,SSE,158,5.6,6.3,43,0.00,,OVC130,0.00,VWS V14.01,2013-03-09 14:04:00,
2013-03-09 09:09:00,44.2,23.2,30.33,WNW,292,1.1,6.3,43,0.00,,OVC130,0.00,VWS V14.01,2013-03-09 14:09:00,
2013-03-09 09:14:00,45.0,22.7,30.33,SSE,158,4.0,6.3,41,0.00,,OVC130,0.00,VWS V14.01,2013-03-09 14:14:00,
2013-03-09 09:19:00,45.3,22.4,30.33,SE,135,7.8,10.1,40,0.00,,OVC120,0.00,VWS V14.01,2013-03-09 14:19:00,
2013-03-09 09:24:00,45.7,22.8,30.33,SSE,158,3.1,10.1,40,0.00,,OVC120,0.00,VWS V14.01,2013-03-09 14:24:00,
2013-03-09 09:29:00,45.9,22.3,30.33,SSE,158,4.3,10.1,39,0.00,,OVC120,0.00,VWS V14.01,2013-03-09 14:29:00,
2013-03-09 09:34:00,46.2,22.6,30.33,WSW,248,2.9,10.1,39,0.00,,OVC120,0.00,VWS V14.01,2013-03-09 14:34:00,
2013-03-09 09:39:00,46.4,22.2,30.33,South,180,1.1,10.1,38,0.00,,OVC120,0.00,VWS V14.01,2013-03-09 14:39:00,
2013-03-09 09:44:00,46.8,22.5,30.33,South,180,2.5,10.1,38,0.00,,OVC120,0.00,VWS V14.01,2013-03-09 14:44:00,
2013-03-09 09:49:00,46.9,22.7,30.33,SSE,158,3.6,10.1,38,0.00,,OVC120,0.00,VWS V14.01,2013-03-09 14:49:00,
2013-03-09 09:54:00,47.1,22.8,30.33,SE,135,4.0,4.0,38,0.00,,OVC120,0.00,VWS V14.01,2013-03-09 14:54:00,
2013-03-09 09:59:00,47.5,22.5,30.33,ESE,112,0.9,7.6,37,0.00,,OVC120,0.00,VWS V14.01,2013-03-09 14:59:00,
2013-03-09 10:04:00,47.5,22.5,30.33,SSE,158,2.9,7.6,37,0.00,,OVC120,0.00,VWS V14.01,2013-03-09 15:04:00,
2013-03-09 10:09:00,48.2,23.2,30.33,SE,135,1.6,7.6,37,0.00,,OVC120,0.00,VWS V14.01,2013-03-09 15:09:00,
2013-03-09 10:14:00,48.7,23.6,30.33,SSE,158,2.9,7.6,37,0.00,,OVC120,0.00,VWS V14.01,2013-03-09 15:14:00,
2013-03-09 10:19:00,48.7,21.6,30.33,SSE,158,2.7,7.6,34,0.00,,SCT130,0.00,VWS V14.01,2013-03-09 15:19:00,
2013-03-09 10:24:00,48.7,21.6,30.33,SE,135,3.6,8.1,34,0.00,,SCT130,0.00,VWS V14.01,2013-03-09 15:24:00,
2013-03-09 10:29:00,48.9,20.4,30.33,SSE,158,2.9,8.1,32,0.00,,SCT130,0.00,VWS V14.01,2013-03-09 15:29:00,
2013-03-09 10:34:00,49.1,21.3,30.33,ESE,112,3.4,8.1,33,0.00,,SCT130,0.00,VWS V14.01,2013-03-09 15:34:00,
2013-03-09 10:39:00,49.3,20.7,30.33,SSE,158,4.9,8.5,32,0.00,,SCT130,0.00,VWS V14.01,2013-03-09 15:39:00,
2013-03-09 10:44:00,49.3,19.9,30.33,NE,45,2.0,8.5,31,0.00,,SCT130,0.00,VWS V14.01,2013-03-09 15:44:00,
2013-03-09 10:49:00,49.5,20.1,30.30,South,180,2.9,9.8,31,0.00,,SCT130,0.00,VWS V14.01,2013-03-09 15:49:00,
2013-03-09 10:54:00,49.6,19.5,30.30,ESE,112,3.6,3.6,30,0.00,,SCT130,0.00,VWS V14.01,2013-03-09 15:54:00,
2013-03-09 10:59:00,50.2,21.5,30.30,SSE,158,4.9,7.4,32,0.00,,SCT130,0.00,VWS V14.01,2013-03-09 15:59:00,
2013-03-09 11:04:00,50.4,20.1,30.30,South,180,6.5,9.0,30,0.00,,SCT130,0.00,VWS V14.01,2013-03-09 16:04:00,
2013-03-09 11:09:00,50.7,20.4,30.30,ESE,112,6.0,9.0,30,0.00,,SCT130,0.00,VWS V14.01,2013-03-09 16:09:00,
2013-03-09 11:14:00,51.1,20.8,30.30,South,180,3.8,9.0,30,0.00,,SCT130,0.00,VWS V14.01,2013-03-09 16:14:00,
2013-03-09 11:19:00,51.4,21.1,30.30,South,180,2.7,9.0,30,0.00,,FEW150,0.00,VWS V14.01,2013-03-09 16:19:00,
2013-03-09 11:24:00,51.8,20.6,30.30,SE,135,4.3,9.0,29,0.00,,FEW150,0.00,VWS V14.01,2013-03-09 16:24:00,
2013-03-09 11:29:00,52.0,19.9,30.30,ESE,112,4.9,9.0,28,0.00,,FEW150,0.00,VWS V14.01,2013-03-09 16:29:00,
2013-03-09 11:34:00,52.3,20.2,30.30,ENE,68,3.1,9.0,28,0.00,,FEW150,0.00,VWS V14.01,2013-03-09 16:34:00,
2013-03-09 11:39:00,52.5,20.4,30.27,SSE,158,3.8,9.0,28,0.00,,FEW150,0.00,VWS V14.01,2013-03-09 16:39:00,
2013-03-09 11:44:00,53.4,21.1,30.27,SSE,158,3.1,9.0,28,0.00,,FEW150,0.00,VWS V14.01,2013-03-09 16:44:00,
2013-03-09 11:49:00,53.8,21.5,30.27,SSE,158,5.4,9.0,28,0.00,,FEW150,0.00,VWS V14.01,2013-03-09 16:49:00,
2013-03-09 11:54:00,54.3,21.1,30.27,ESE,112,3.4,6.0,27,0.00,,FEW150,0.00,VWS V14.01,2013-03-09 16:54:00,
2013-03-09 11:59:00,54.5,20.3,30.27,SSE,158,1.3,6.0,26,0.00,,FEW150,0.00,VWS V14.01,2013-03-09 16:59:00,
2013-03-09 12:04:00,54.7,21.4,30.27,SSW,202,3.8,6.0,27,0.00,,FEW150,0.00,VWS V14.01,2013-03-09 17:04:00,
2013-03-09 12:09:00,55.4,21.1,30.27,SSE,158,2.9,6.0,26,0.00,,FEW150,0.00,VWS V14.01,2013-03-09 17:09:00,
2013-03-09 12:14:00,55.8,20.5,30.27,SSE,158,2.0,6.0,25,0.00,,FEW150,0.00,VWS V14.01,2013-03-09 17:14:00,
2013-03-09 12:19:00,56.1,20.8,30.27,SSE,158,4.0,7.4,25,0.00,,CLR,0.00,VWS V14.01,2013-03-09 17:19:00,
2013-03-09 12:24:00,56.7,22.2,30.27,NNE,22,2.5,7.4,26,0.00,,CLR,0.00,VWS V14.01,2013-03-09 17:24:00,
2013-03-09 12:29:00,56.7,21.3,30.27,SSE,158,2.2,7.4,25,0.00,,CLR,0.00,VWS V14.01,2013-03-09 17:29:00,
2013-03-09 12:34:00,57.2,21.7,30.27,SSE,158,3.6,7.4,25,0.00,,CLR,0.00,VWS V14.01,2013-03-09 17:34:00,
2013-03-09 12:39:00,57.6,22.0,30.27,SSW,202,3.8,7.4,25,0.00,,CLR,0.00,VWS V14.01,2013-03-09 17:39:00,
2013-03-09 12:44:00,58.3,22.6,30.27,South,180,3.4,7.4,25,0.00,,CLR,0.00,VWS V14.01,2013-03-09 17:44:00,
2013-03-09 12:49:00,58.6,22.9,30.27,WNW,292,1.6,7.4,25,0.00,,CLR,0.00,VWS V14.01,2013-03-09 17:49:00,
2013-03-09 12:54:00,59.0,22.3,30.27,ESE,112,1.6,3.1,24,0.00,,CLR,0.00,VWS V14.01,2013-03-09 17:54:00,
2013-03-09 12:59:00,59.2,22.4,30.27,South,180,2.5,7.4,24,0.00,,CLR,0.00,VWS V14.01,2013-03-09 17:59:00,
2013-03-09 13:04:00,59.4,22.6,30.24,South,180,0.0,7.4,24,0.00,,CLR,0.00,VWS V14.01,2013-03-09 18:04:00,
2013-03-09 13:09:00,59.5,22.7,30.24,ESE,112,3.8,7.4,24,0.00,,CLR,0.00,VWS V14.01,2013-03-09 18:09:00,
2013-03-09 13:14:00,59.7,20.8,30.24,SSE,158,4.0,7.4,22,0.00,,CLR,0.00,VWS V14.01,2013-03-09 18:14:00,
2013-03-09 13:19:00,60.3,21.3,30.24,SSE,158,2.7,7.4,22,0.00,,BKN120,0.00,VWS V14.01,2013-03-09 18:19:00,
2013-03-09 13:24:00,60.3,21.3,30.24,SSE,158,3.1,7.4,22,0.00,,BKN120,0.00,VWS V14.01,2013-03-09 18:24:00,
2013-03-09 13:29:00,60.3,21.3,30.24,ENE,68,1.3,7.4,22,0.00,,BKN120,0.00,VWS V14.01,2013-03-09 18:29:00,
2013-03-09 13:34:00,60.4,21.4,30.24,SE,135,4.9,8.1,22,0.00,,BKN120,0.00,VWS V14.01,2013-03-09 18:34:00,
2013-03-09 13:39:00,60.4,21.4,30.21,South,180,3.1,8.1,22,0.00,,BKN120,0.00,VWS V14.01,2013-03-09 18:39:00,
2013-03-09 13:44:00,61.3,21.1,30.21,SSE,158,4.0,8.1,21,0.00,,BKN120,0.00,VWS V14.01,2013-03-09 18:44:00,
2013-03-09 13:49:00,61.2,20.9,30.21,SSE,158,4.9,8.1,21,0.00,,BKN120,0.00,VWS V14.01,2013-03-09 18:49:00,
2013-03-09 13:54:00,61.3,21.1,30.21,East,90,2.0,2.0,21,0.00,,BKN120,0.00,VWS V14.01,2013-03-09 18:54:00,
2013-03-09 13:59:00,61.3,21.1,30.21,South,180,2.2,2.7,21,0.00,,BKN120,0.00,VWS V14.01,2013-03-09 18:59:00,
2013-03-09 14:04:00,61.5,18.9,30.21,SSE,158,2.9,4.7,19,0.00,,BKN120,0.00,VWS V14.01,2013-03-09 19:04:00,
2013-03-09 14:09:00,62.2,19.5,30.21,SE,135,0.0,4.7,19,0.00,,BKN120,0.00,VWS V14.01,2013-03-09 19:09:00,
2013-03-09 14:14:00,62.6,18.5,30.21,SSE,158,2.9,6.0,18,0.00,,BKN120,0.00,VWS V14.01,2013-03-09 19:14:00,
2013-03-09 14:19:00,63.9,19.6,30.21,ESE,112,2.9,6.0,18,0.00,,BKN110,0.00,VWS V14.01,2013-03-09 19:19:00,
2013-03-09 14:24:00,64.6,20.1,30.21,SSE,158,1.3,6.0,18,0.00,,BKN110,0.00,VWS V14.01,2013-03-09 19:24:00,
2013-03-09 14:29:00,64.8,20.3,30.21,SSW,202,3.8,6.0,18,0.00,,BKN110,0.00,VWS V14.01,2013-03-09 19:29:00,
2013-03-09 14:34:00,64.8,20.3,30.21,ENE,68,1.3,6.0,18,0.00,,BKN110,0.00,VWS V14.01,2013-03-09 19:34:00,
2013-03-09 14:39:00,64.2,19.9,30.21,NNW,338,1.6,6.0,18,0.00,,BKN110,0.00,VWS V14.01,2013-03-09 19:39:00,
2013-03-09 14:44:00,64.2,19.9,30.21,ESE,112,0.0,6.0,18,0.00,,BKN110,0.00,VWS V14.01,2013-03-09 19:44:00,
2013-03-09 14:49:00,63.9,19.6,30.21,North,0,2.5,6.0,18,0.00,,BKN110,0.00,VWS V14.01,2013-03-09 19:49:00,
2013-03-09 14:54:00,63.9,19.6,30.18,WSW,248,2.5,2.5,18,0.00,,BKN110,0.00,VWS V14.01,2013-03-09 19:54:00,
2013-03-09 14:59:00,63.9,19.6,30.18,NW,315,1.3,2.5,18,0.00,,BKN110,0.00,VWS V14.01,2013-03-09 19:59:00,
2013-03-09 15:04:00,64.0,19.7,30.18,WNW,292,3.1,4.0,18,0.00,,BKN110,0.00,VWS V14.01,2013-03-09 20:04:00,
2013-03-09 15:09:00,64.2,19.9,30.18,NNW,338,1.6,4.3,18,0.00,,BKN110,0.00,VWS V14.01,2013-03-09 20:09:00,
2013-03-09 15:14:00,64.6,20.1,30.18,WSW,248,2.7,4.3,18,0.00,,BKN110,0.00,VWS V14.01,2013-03-09 20:14:00,
2013-03-09 15:19:00,64.6,20.1,30.15,NNE,22,2.0,4.3,18,0.00,,OVC095,0.00,VWS V14.01,2013-03-09 20:19:00,
2013-03-09 15:24:00,64.2,19.9,30.15,ENE,68,1.1,4.3,18,0.00,,OVC095,0.00,VWS V14.01,2013-03-09 20:24:00,
2013-03-09 15:29:00,64.0,19.7,30.15,ENE,68,0.0,4.3,18,0.00,,OVC095,0.00,VWS V14.01,2013-03-09 20:29:00,
2013-03-09 15:34:00,64.0,19.7,30.15,SSE,158,2.7,4.3,18,0.00,,OVC095,0.00,VWS V14.01,2013-03-09 20:34:00,
2013-03-09 15:39:00,64.2,19.9,30.15,SSE,158,3.1,4.3,18,0.00,,OVC095,0.00,VWS V14.01,2013-03-09 20:39:00,
2013-03-09 15:44:00,64.2,19.9,30.15,South,180,3.1,6.3,18,0.00,,OVC095,0.00,VWS V14.01,2013-03-09 20:44:00,
2013-03-09 15:49:00,64.2,19.9,30.18,SSE,158,2.5,6.3,18,0.00,,OVC095,0.00,VWS V14.01,2013-03-09 20:49:00,
2013-03-09 15:54:00,64.2,19.9,30.18,SSE,158,2.2,3.8,18,0.00,,OVC095,0.00,VWS V14.01,2013-03-09 20:54:00,
2013-03-09 15:59:00,64.0,19.7,30.18,South,180,4.0,4.3,18,0.00,,OVC095,0.00,VWS V14.01,2013-03-09 20:59:00,
2013-03-09 16:58:00,62.4,19.6,30.15,South,180,3.4,3.6,19,0.00,,OVC095,0.00,VWS V14.01,2013-03-09 21:58:00,
2013-03-09 17:03:00,62.2,19.5,30.15,SSW,202,2.0,3.6,19,0.00,,BKN100,0.00,VWS V14.01,2013-03-09 22:03:00,
2013-03-09 17:08:00,62.2,19.5,30.15,SSE,158,2.5,6.0,19,0.00,,BKN100,0.00,VWS V14.01,2013-03-09 22:08:00,
2013-03-09 17:13:00,62.1,19.3,30.15,SSE,158,1.6,6.0,19,0.00,,BKN100,0.00,VWS V14.01,2013-03-09 22:13:00,
2013-03-09 17:18:00,61.9,19.2,30.15,South,180,4.3,6.0,19,0.00,,BKN100,0.00,VWS V14.01,2013-03-09 22:18:00,
2013-03-09 17:23:00,61.5,18.9,30.12,SSE,158,2.9,6.0,19,0.00,,BKN100,0.00,VWS V14.01,2013-03-09 22:23:00,
2013-03-09 17:28:00,61.3,18.8,30.12,SSW,202,3.1,6.0,19,0.00,,BKN100,0.00,VWS V14.01,2013-03-09 22:28:00,
2013-03-09 17:33:00,61.0,18.5,30.12,SE,135,4.9,6.0,19,0.00,,BKN100,0.00,VWS V14.01,2013-03-09 22:33:00,
2013-03-09 17:38:00,61.0,18.5,30.12,SSW,202,2.5,6.0,19,0.00,,BKN100,0.00,VWS V14.01,2013-03-09 22:38:00,
2013-03-09 17:43:00,60.6,18.2,30.12,SSE,158,4.3,6.0,19,0.00,,BKN100,0.00,VWS V14.01,2013-03-09 22:43:00,
2013-03-09 17:48:00,60.4,18.0,30.12,South,180,2.9,6.0,19,0.00,,BKN100,0.00,VWS V14.01,2013-03-09 22:48:00,
2013-03-09 17:53:00,60.1,17.7,30.15,SSE,158,2.7,6.0,19,0.00,,BKN100,0.00,VWS V14.01,2013-03-09 22:53:00,
2013-03-09 17:58:00,60.1,17.7,30.15,ESE,112,2.7,4.9,19,0.00,,BKN100,0.00,VWS V14.01,2013-03-09 22:58:00,
2013-03-09 18:03:00,59.7,17.4,30.15,SSE,158,0.0,4.9,19,0.00,,OVC110,0.00,VWS V14.01,2013-03-09 23:03:00,
2013-03-09 18:08:00,59.5,17.3,30.18,ESE,112,2.5,4.9,19,0.00,,OVC110,0.00,VWS V14.01,2013-03-09 23:08:00,
2013-03-09 18:13:00,59.5,17.3,30.18,SSE,158,3.4,4.9,19,0.00,,OVC110,0.00,VWS V14.01,2013-03-09 23:13:00,
2013-03-09 18:35:00,58.8,20.1,30.18,SSW,202,1.1,2.9,22,0.00,,OVC110,0.00,VWS V14.01,2013-03-09 23:35:00,
2013-03-09 18:37:00,58.8,20.1,30.18,SE,135,3.4,3.4,22,0.00,,OVC110,0.00,VWS V14.01,2013-03-09 23:37:00,
2013-03-09 23:00:00,54.7,42.3,29.85,SSE,158,1.1,4.7,63,0.04,,-RA,0.00,VWS V14.01,2013-03-10 04:00:00,
2013-03-09 23:09:00,58.8,20.1,30.18,ESE,112,0.0,3.4,22,0.00,,OVC110,0.00,VWS V14.01,2013-03-10 04:09:00,
2013-03-09 23:15:00,52.7,21.4,30.09,ESE,112,0.0,3.4,29,0.00,,OVC110,0.00,VWS V14.01,2013-03-10 04:15:00,
2013-03-09 23:20:00,52.7,21.4,30.06,ESE,112,0.0,3.4,29,0.00,,SCT150,0.00,VWS V14.01,2013-03-10 04:20:00,
2013-03-09 23:25:00,52.5,21.2,30.06,ESE,112,0.0,3.4,29,0.00,,SCT150,0.00,VWS V14.01,2013-03-10 04:25:00,
2013-03-09 23:30:00,52.3,21.8,30.06,ESE,112,0.0,3.4,30,0.00,,SCT150,0.00,VWS V14.01,2013-03-10 04:30:00,
2013-03-09 23:35:00,52.3,22.6,30.09,ESE,112,0.0,3.4,31,0.00,,SCT150,0.00,VWS V14.01,2013-03-10 04:35:00,
2013-03-09 23:40:00,52.2,23.2,30.09,SSE,158,0.0,3.4,32,0.00,,SCT150,0.00,VWS V14.01,2013-03-10 04:40:00,
2013-03-09 23:44:00,52.2,24.0,30.09,SSE,158,0.0,3.4,33,0.00,,SCT150,0.00,VWS V14.01,2013-03-10 04:44:00,
2013-03-09 23:49:00,52.0,23.8,30.09,SSE,158,0.0,3.4,33,0.00,,SCT150,0.00,VWS V14.01,2013-03-10 04:49:00,
2013-03-09 23:54:00,52.0,23.8,30.09,SSE,158,1.6,3.4,33,0.00,,SCT150,0.00,VWS V14.01,2013-03-10 04:54:00,
2013-03-09 23:59:00,51.8,24.3,30.09,ESE,112,0.0,3.4,34,0.00,,SCT150,0.00,VWS V14.01,2013-03-10 04:59:00,